This is the latest recevied weather packets stored in our database for station/object KE6LRO. If no packets are shown the sender has not sent any weather packets the latest 10 day(s).
| Time | Temp. | Humidity | Pressure | Rain* | Wind** | Luminosity | Snow |
|---|---|---|---|---|---|---|---|
| 1778004899 | 16.11° C | 30% | 1018.8 hPa | 0 mm | - | 760 W/m² | - |
| 1778004597 | 15.56° C | 31% | 1018.8 hPa | 0 mm | - | 742 W/m² | - |
| 1778004292 | 15.56° C | 30% | 1018.9 hPa | 0 mm | - | 738 W/m² | - |
| 1778003989 | 15.56° C | 33% | 1019.1 hPa | 0 mm | - | 736 W/m² | - |
| 1778003686 | 15° C | 32% | 1019.1 hPa | 0 mm | - | 723 W/m² | - |
| 1778003383 | 15.56° C | 33% | 1019.3 hPa | 0 mm | - | 714 W/m² | - |
| 1778003079 | 15° C | 32% | 1018.8 hPa | 0 mm | - | 714 W/m² | - |
| 1778002776 | 16.11° C | 30% | 1018.9 hPa | 0 mm | - | 707 W/m² | - |
| 1778002472 | 14.44° C | 34% | 1019.2 hPa | 0 mm | - | 702 W/m² | - |
| 1778002169 | 14.44° C | 33% | 1019.4 hPa | 0 mm | - | 697 W/m² | - |
| 1778001868 | 14.44° C | 35% | 1019.4 hPa | 0 mm | - | 680 W/m² | - |
| 1778001566 | 14.44° C | 34% | 1019.3 hPa | 0 mm | - | 670 W/m² | - |
| 1778001264 | 14.44° C | 33% | 1019.2 hPa | 0 mm | - | 658 W/m² | - |
| 1778000960 | 14.44° C | 33% | 1019.3 hPa | 0 mm | - | 648 W/m² | - |
| 1778000657 | 13.89° C | 34% | 1019.4 hPa | 0 mm | - | 640 W/m² | - |
| 1778000352 | 14.44° C | 36% | 1019.5 hPa | 0 mm | - | 632 W/m² | - |
| 1778000049 | 13.89° C | 36% | 1019.3 hPa | 0 mm | - | 622 W/m² | - |
| 1777999744 | 13.89° C | 34% | 1019.5 hPa | 0 mm | - | 612 W/m² | - |
| 1777999440 | 13.89° C | 33% | 1019.6 hPa | 0 mm | - | 602 W/m² | - |
| 1777999139 | 12.78° C | 37% | 1019.7 hPa | 0 mm | - | 595 W/m² | - |
| 1777998838 | 12.78° C | 35% | 1019.7 hPa | 0 mm | - | 582 W/m² | - |
| 1777998536 | 12.22° C | 37% | 1019.6 hPa | 0 mm | - | 569 W/m² | - |
| 1777998231 | 11.67° C | 36% | 1019.8 hPa | 0 mm | - | 559 W/m² | - |
| 1777997929 | 12.78° C | 36% | 1019.6 hPa | 0 mm | - | 550 W/m² | - |
| 1777997625 | 13.33° C | 37% | 1019.9 hPa | 0 mm | - | 539 W/m² | - |
* Rain latest hour (hover to see other rain measurements)
** Current wind speed in m/s (hover to see current wind gust speed)